Time,TemperatureF,DewpointF,PressureIn,WindDirection,WindDirectionDegrees,WindSpeedMPH,WindSpeedGustMPH,Humidity,HourlyPrecipIn,Conditions,Clouds,dailyrainin,SolarRadiationWatts/m^2,SoftwareType,DateUTC
2014-07-11 00:00:00,71.7,50.0,29.67,North,5,7.0,13.0,47,0.00,,,0.00,0,weatherlink.com 1.10,2014-07-11 07:00:00,
2014-07-11 00:15:00,71.2,50.0,29.66,North,5,7.0,9.0,48,0.00,,,0.00,0,weatherlink.com 1.10,2014-07-11 07:15:00,
2014-07-11 00:30:00,70.9,50.0,29.66,North,5,9.0,11.0,48,0.00,,,0.00,0,weatherlink.com 1.10,2014-07-11 07:30:00,
2014-07-11 00:45:00,70.8,50.0,29.66,North,5,11.0,13.0,48,0.00,,,0.00,0,weatherlink.com 1.10,2014-07-11 07:45:00,
2014-07-11 01:00:00,71.0,50.0,29.66,North,5,14.0,20.0,47,0.00,,,0.00,0,weatherlink.com 1.10,2014-07-11 08:00:00,
2014-07-11 01:15:00,70.5,50.0,29.66,North,5,12.0,19.0,48,0.00,,,0.00,0,weatherlink.com 1.10,2014-07-11 08:15:00,
2014-07-11 01:30:00,69.8,50.0,29.66,North,5,10.0,13.0,49,0.00,,,0.00,0,weatherlink.com 1.10,2014-07-11 08:30:00,
2014-07-11 01:45:00,70.1,49.0,29.66,North,5,14.0,16.0,48,0.00,,,0.00,0,weatherlink.com 1.10,2014-07-11 08:45:00,
2014-07-11 02:00:00,70.4,50.0,29.66,North,5,19.0,19.0,48,0.00,,,0.00,0,weatherlink.com 1.10,2014-07-11 09:00:00,
2014-07-11 02:15:00,70.7,49.0,29.66,North,5,19.0,19.0,47,0.00,,,0.00,0,weatherlink.com 1.10,2014-07-11 09:15:00,
2014-07-11 02:30:00,69.9,50.0,29.66,North,5,10.0,15.0,49,0.00,,,0.00,0,weatherlink.com 1.10,2014-07-11 09:30:00,
2014-07-11 02:45:00,69.8,50.0,29.66,North,5,11.0,14.0,49,0.00,,,0.00,0,weatherlink.com 1.10,2014-07-11 09:45:00,
2014-07-11 03:00:00,69.6,50.0,29.66,North,5,14.0,16.0,50,0.00,,,0.00,0,weatherlink.com 1.10,2014-07-11 10:00:00,
2014-07-11 03:15:00,69.7,48.0,29.67,North,5,14.0,18.0,46,0.00,,,0.00,0,weatherlink.com 1.10,2014-07-11 10:15:00,
2014-07-11 03:30:00,69.6,49.0,29.67,North,5,11.0,18.0,49,0.00,,,0.00,0,weatherlink.com 1.10,2014-07-11 10:30:00,
2014-07-11 03:45:00,69.3,49.0,29.67,North,5,12.0,18.0,49,0.00,,,0.00,0,weatherlink.com 1.10,2014-07-11 10:45:00,
2014-07-11 04:00:00,68.8,49.0,29.68,North,5,12.0,20.0,50,0.00,,,0.00,0,weatherlink.com 1.10,2014-07-11 11:00:00,
2014-07-11 04:15:00,68.2,49.0,29.68,North,5,13.0,19.0,51,0.00,,,0.00,0,weatherlink.com 1.10,2014-07-11 11:15:00,
2014-07-11 04:30:00,68.3,49.0,29.69,North,5,11.0,19.0,50,0.00,,,0.00,0,weatherlink.com 1.10,2014-07-11 11:30:00,
2014-07-11 04:45:00,68.3,48.0,29.69,North,5,14.0,17.0,49,0.00,,,0.00,0,weatherlink.com 1.10,2014-07-11 11:45:00,
2014-07-11 05:01:00,68.4,47.0,29.69,North,5,11.0,17.0,47,0.00,,,0.00,0,weatherlink.com 1.10,2014-07-11 12:01:00,
2014-07-11 05:16:00,68.0,46.0,29.70,North,5,14.0,20.0,46,0.00,,,0.00,0,weatherlink.com 1.10,2014-07-11 12:16:00,
2014-07-11 05:31:00,67.4,46.0,29.70,North,5,13.0,19.0,46,0.00,,,0.00,0,weatherlink.com 1.10,2014-07-11 12:31:00,
2014-07-11 05:46:00,67.3,45.0,29.70,North,5,10.0,16.0,44,0.00,,,0.00,0,weatherlink.com 1.10,2014-07-11 12:46:00,
2014-07-11 06:01:00,67.1,45.0,29.70,North,5,13.0,20.0,45,0.00,,,0.00,18,weatherlink.com 1.10,2014-07-11 13:01:00,
2014-07-11 06:16:00,67.3,45.0,29.71,North,5,15.0,20.0,45,0.00,,,0.00,32,weatherlink.com 1.10,2014-07-11 13:16:00,
2014-07-11 06:31:00,67.2,45.0,29.71,North,5,11.0,17.0,45,0.00,,,0.00,63,weatherlink.com 1.10,2014-07-11 13:31:00,
2014-07-11 06:46:00,67.9,44.0,29.71,North,5,11.0,18.0,43,0.00,,,0.00,148,weatherlink.com 1.10,2014-07-11 13:46:00,
2014-07-11 07:01:00,68.0,45.0,29.71,North,5,12.0,13.0,43,0.00,,,0.00,91,weatherlink.com 1.10,2014-07-11 14:01:00,
2014-07-11 07:16:00,68.0,45.0,29.71,North,5,11.0,16.0,43,0.00,,,0.00,287,weatherlink.com 1.10,2014-07-11 14:16:00,
2014-07-11 07:31:00,68.5,44.0,29.71,North,5,8.0,14.0,41,0.00,,,0.00,149,weatherlink.com 1.10,2014-07-11 14:31:00,
2014-07-11 07:46:00,69.1,45.0,29.71,North,5,8.0,10.0,42,0.00,,,0.00,102,weatherlink.com 1.10,2014-07-11 14:46:00,
2014-07-11 08:01:00,69.2,45.0,29.71,North,5,6.0,9.0,42,0.00,,,0.00,167,weatherlink.com 1.10,2014-07-11 15:01:00,
2014-07-11 08:16:00,69.8,45.0,29.72,North,5,10.0,14.0,41,0.00,,,0.00,547,weatherlink.com 1.10,2014-07-11 15:16:00,
2014-07-11 08:31:00,71.0,45.0,29.72,North,5,12.0,15.0,39,0.00,,,0.00,169,weatherlink.com 1.10,2014-07-11 15:31:00,
2014-07-11 08:46:00,71.5,44.0,29.73,North,5,10.0,12.0,38,0.00,,,0.00,278,weatherlink.com 1.10,2014-07-11 15:46:00,
2014-07-11 09:01:00,71.9,45.0,29.73,North,5,10.0,14.0,38,0.00,,,0.00,663,weatherlink.com 1.10,2014-07-11 16:01:00,
2014-07-11 09:16:00,73.0,45.0,29.73,North,5,9.0,13.0,37,0.00,,,0.00,712,weatherlink.com 1.10,2014-07-11 16:16:00,
2014-07-11 09:31:00,73.3,46.0,29.73,North,5,10.0,12.0,38,0.00,,,0.00,547,weatherlink.com 1.10,2014-07-11 16:31:00,
2014-07-11 09:46:00,72.4,45.0,29.73,North,5,10.0,12.0,38,0.00,,,0.00,211,weatherlink.com 1.10,2014-07-11 16:46:00,
2014-07-11 10:01:00,72.8,45.0,29.73,North,5,4.0,10.0,37,0.00,,,0.00,390,weatherlink.com 1.10,2014-07-11 17:01:00,
2014-07-11 10:16:00,74.9,46.0,29.74,North,5,8.0,12.0,36,0.00,,,0.00,436,weatherlink.com 1.10,2014-07-11 17:16:00,
2014-07-11 10:31:00,74.8,46.0,29.73,North,5,7.0,13.0,36,0.00,,,0.00,1104,weatherlink.com 1.10,2014-07-11 17:31:00,
2014-07-11 10:46:00,76.6,47.0,29.73,North,5,10.0,12.0,35,0.00,,,0.00,1120,weatherlink.com 1.10,2014-07-11 17:46:00,
2014-07-11 11:01:00,77.3,46.0,29.73,North,5,12.0,16.0,33,0.00,,,0.00,429,weatherlink.com 1.10,2014-07-11 18:01:00,
2014-07-11 11:16:00,76.6,45.0,29.74,North,5,10.0,15.0,33,0.00,,,0.00,605,weatherlink.com 1.10,2014-07-11 18:16:00,
2014-07-11 11:31:00,78.0,46.0,29.74,North,5,8.0,17.0,32,0.00,,,0.00,545,weatherlink.com 1.10,2014-07-11 18:31:00,
2014-07-11 11:46:00,79.0,46.0,29.74,North,5,14.0,18.0,31,0.00,,,0.00,1188,weatherlink.com 1.10,2014-07-11 18:46:00,
2014-07-11 12:02:00,78.1,46.0,29.74,North,5,6.0,12.0,32,0.00,,,0.00,559,weatherlink.com 1.10,2014-07-11 19:02:00,
2014-07-11 12:17:00,78.6,46.0,29.74,North,5,3.0,11.0,32,0.00,,,0.00,482,weatherlink.com 1.10,2014-07-11 19:17:00,
2014-07-11 12:32:00,78.7,47.0,29.74,North,5,4.0,10.0,33,0.00,,,0.00,517,weatherlink.com 1.10,2014-07-11 19:32:00,
2014-07-11 12:47:00,79.0,47.0,29.73,North,5,2.0,6.0,33,0.00,,,0.00,1209,weatherlink.com 1.10,2014-07-11 19:47:00,
2014-07-11 13:02:00,81.8,47.0,29.73,North,5,7.0,11.0,30,0.00,,,0.00,323,weatherlink.com 1.10,2014-07-11 20:02:00,
2014-07-11 13:17:00,80.9,48.0,29.72,North,5,10.0,11.0,31,0.00,,,0.00,1218,weatherlink.com 1.10,2014-07-11 20:17:00,
2014-07-11 13:32:00,81.3,48.0,29.72,North,5,5.0,14.0,31,0.00,,,0.00,292,weatherlink.com 1.10,2014-07-11 20:32:00,
2014-07-11 13:47:00,80.3,47.0,29.72,North,5,7.0,10.0,31,0.00,,,0.00,313,weatherlink.com 1.10,2014-07-11 20:47:00,
2014-07-11 14:02:00,81.5,47.0,29.72,North,5,7.0,12.0,30,0.00,,,0.00,417,weatherlink.com 1.10,2014-07-11 21:02:00,
2014-07-11 14:17:00,81.7,48.0,29.72,North,5,3.0,8.0,31,0.00,,,0.00,1220,weatherlink.com 1.10,2014-07-11 21:17:00,
2014-07-11 14:32:00,82.4,48.0,29.72,North,5,8.0,10.0,30,0.00,,,0.00,316,weatherlink.com 1.10,2014-07-11 21:32:00,
2014-07-11 14:47:00,80.8,47.0,29.72,North,5,0.0,6.0,31,0.00,,,0.00,290,weatherlink.com 1.10,2014-07-11 21:47:00,
2014-07-11 15:02:00,80.6,46.0,29.72,North,5,4.0,7.0,30,0.00,,,0.00,264,weatherlink.com 1.10,2014-07-11 22:02:00,
2014-07-11 15:17:00,81.3,47.0,29.72,North,5,7.0,8.0,30,0.00,,,0.00,380,weatherlink.com 1.10,2014-07-11 22:17:00,
2014-07-11 15:32:00,83.3,48.0,29.72,North,5,6.0,9.0,29,0.00,,,0.00,385,weatherlink.com 1.10,2014-07-11 22:32:00,
2014-07-11 15:47:00,82.4,47.0,29.71,North,5,8.0,22.0,29,0.00,,,0.00,323,weatherlink.com 1.10,2014-07-11 22:47:00,
2014-07-11 16:02:00,83.4,48.0,29.71,North,5,3.0,8.0,29,0.00,,,0.00,323,weatherlink.com 1.10,2014-07-11 23:02:00,
2014-07-11 16:17:00,85.1,48.0,29.72,North,5,5.0,7.0,27,0.00,,,0.00,283,weatherlink.com 1.10,2014-07-11 23:17:00,
2014-07-11 16:32:00,83.1,47.0,29.71,North,5,3.0,13.0,28,0.00,,,0.00,199,weatherlink.com 1.10,2014-07-11 23:32:00,
2014-07-11 16:47:00,82.0,48.0,29.72,North,5,6.0,13.0,31,0.00,,,0.00,821,weatherlink.com 1.10,2014-07-11 23:47:00,
2014-07-11 17:02:00,83.1,47.0,29.71,North,5,11.0,18.0,28,0.00,,,0.00,174,weatherlink.com 1.10,2014-07-12 00:02:00,
2014-07-11 17:17:00,81.4,46.0,29.72,North,5,6.0,15.0,29,0.00,,,0.00,84,weatherlink.com 1.10,2014-07-12 00:17:00,
2014-07-11 17:32:00,80.8,48.0,29.72,North,5,3.0,7.0,32,0.00,,,0.00,128,weatherlink.com 1.10,2014-07-12 00:32:00,
2014-07-11 17:47:00,80.9,48.0,29.72,North,5,2.0,8.0,31,0.00,,,0.00,141,weatherlink.com 1.10,2014-07-12 00:47:00,
2014-07-11 18:02:00,80.1,48.0,29.72,North,5,1.0,3.0,32,0.00,,,0.00,86,weatherlink.com 1.10,2014-07-12 01:02:00,
2014-07-11 18:17:00,79.4,48.0,29.72,North,5,0.0,3.0,33,0.00,,,0.00,70,weatherlink.com 1.10,2014-07-12 01:17:00,
2014-07-11 18:32:00,79.2,48.0,29.73,North,5,5.0,7.0,34,0.00,,,0.00,125,weatherlink.com 1.10,2014-07-12 01:32:00,
2014-07-11 18:47:00,78.9,48.0,29.73,North,5,3.0,7.0,34,0.00,,,0.00,88,weatherlink.com 1.10,2014-07-12 01:47:00,
2014-07-11 19:02:00,78.5,48.0,29.73,North,5,1.0,6.0,34,0.00,,,0.00,51,weatherlink.com 1.10,2014-07-12 02:02:00,